Weather History for Rush City, MN

Change the Weather History Date:

Tuesday, May 13, 2014

  Actual Average (KCBG) Record (KCBG)
Temperature  
Mean Temperature 46 °F -  
Max Temperature 52 °F 65 °F 87 °F (1958)
Min Temperature 40 °F 42 °F 23 °F (1997)
Degree Days  
Heating Degree Days 19    
Moisture  
Dew Point 38 °F    
Average Humidity 73    
Maximum Humidity 94    
Minimum Humidity 57    
Precipitation  
Precipitation 0.00 in - - ()
Sea Level Pressure  
Sea Level Pressure 29.98 in    
Wind  
Wind Speed 7 mph (WNW)    
Max Wind Speed 17 mph    
Max Gust Speed 25 mph    
Visibility 10 miles    
Events      
Averages and records for this station are not official NWS values.
T = Trace of Precipitation, MM = Missing Value Source: NWS Daily Summary

Daily Weather History Graph

Daily Weather History Graph

Search for Another Location

Airport:

Trip Planner

Search our weather history database for the weather conditions in past years. The results will help you decide how hot, cold, wet, or windy it might be!

Date:

Astronomy

May. 13, 2014 Rise Set
Actual Time 5:42 AM CDT 8:34 PM CDT
Civil Twilight 5:08 AM CDT 9:08 PM CDT
Nautical Twilight 4:24 AM CDT 9:52 PM CDT
Astronomical Twilight 3:32 AM CDT 10:45 PM CDT
Moon 7:32 PM CDT (5/13) 5:05 AM CDT (5/13)
Length of Visible Light 16h 00m
Length of Day
14h 51m
Waxing Gibbous, 99% of the Moon is Illuminated
May 13
Waxing Gibbous
May 14
Full
May 21
Last Quarter
May 28
New
Jun 5
First Quarter

Hourly Weather History & Observations

Time (CDT) Temp. Windchill Dew Point Humidity Pressure Visibility Wind Dir Wind Speed Gust Speed Precip Events Conditions
12:15 AM 40.6 °F 38.6 °F 39.0 °F 94% 29.79 in 10.0 mi NW 3.5 mph - N/A   Overcast
12:35 AM 40.8 °F - 39.0 °F 93% 29.80 in 10.0 mi Calm Calm - N/A   Overcast
1:15 AM 41.4 °F - 39.6 °F 93% 29.80 in 10.0 mi Calm Calm - N/A   Overcast
1:35 AM 41.4 °F - 39.6 °F 93% 29.80 in 10.0 mi Calm Calm - N/A   Overcast
1:55 AM 41.5 °F - 39.7 °F 93% 29.80 in 10.0 mi Calm Calm - N/A   Overcast
2:36 AM 41.9 °F 40.0 °F 40.1 °F 93% 29.81 in 10.0 mi WSW 3.5 mph - N/A   Overcast
2:55 AM 42.3 °F 40.5 °F 40.6 °F 94% 29.81 in 10.0 mi SSW 3.5 mph - N/A   Overcast
3:15 AM 42.6 °F - 41.0 °F 94% 29.81 in 10.0 mi Calm Calm - N/A   Overcast
3:36 AM 43.5 °F 41.9 °F 41.9 °F 94% 29.82 in 10.0 mi WSW 3.5 mph - N/A   Overcast
3:55 AM 44.6 °F 39.7 °F 43.0 °F 94% 29.82 in 10.0 mi West 9.2 mph - N/A   Overcast
4:15 AM 43.9 °F 38.3 °F 42.1 °F 93% 29.83 in 10.0 mi West 10.4 mph 17.3 mph N/A   Overcast
4:36 AM 43.7 °F 38.1 °F 41.2 °F 91% 29.84 in 10.0 mi West 10.4 mph 17.3 mph N/A   Overcast
4:55 AM 43.9 °F 39.9 °F 40.8 °F 89% 29.84 in 10.0 mi West 6.9 mph 16.1 mph N/A   Overcast
5:15 AM 43.9 °F 37.9 °F 39.7 °F 85% 29.84 in 10.0 mi West 11.5 mph 20.7 mph N/A   Overcast
5:36 AM 44.1 °F 39.0 °F 39.2 °F 83% 29.85 in 10.0 mi West 9.2 mph 17.3 mph N/A   Overcast
5:55 AM 44.1 °F 39.5 °F 39.2 °F 83% 29.86 in 10.0 mi WNW 8.1 mph 19.6 mph N/A   Overcast
6:15 AM 43.9 °F 37.9 °F 38.7 °F 82% 29.87 in 10.0 mi West 11.5 mph 17.3 mph N/A   Overcast
6:36 AM 44.2 °F 39.2 °F 38.5 °F 80% 29.89 in 10.0 mi WNW 9.2 mph 17.3 mph N/A   Overcast
6:55 AM 44.4 °F 39.5 °F 38.5 °F 80% 29.90 in 10.0 mi WNW 9.2 mph 16.1 mph N/A   Overcast
7:15 AM 44.6 °F 38.4 °F 38.1 °F 78% 29.91 in 10.0 mi WNW 12.7 mph 19.6 mph N/A   Overcast
8:16 AM 44.8 °F 38.0 °F 39.6 °F 82% 29.93 in 10.0 mi WNW 15.0 mph 19.6 mph N/A   Overcast
8:35 AM 45.3 °F 40.6 °F 41.5 °F 87% 29.94 in 10.0 mi WNW 9.2 mph - N/A   Overcast
8:55 AM 45.5 °F 40.3 °F 40.5 °F 83% 29.95 in 10.0 mi WNW 10.4 mph - N/A   Overcast
9:15 AM 45.7 °F 39.1 °F 38.5 °F 76% 29.95 in 10.0 mi WNW 15.0 mph 25.3 mph N/A   Overcast
9:55 AM 45.9 °F 40.4 °F 36.7 °F 70% 29.97 in 10.0 mi WNW 11.5 mph - N/A   Overcast
11:35 AM 47.5 °F - 38.8 °F 72% 30.01 in 10.0 mi WNW 10.4 mph - N/A   Overcast
11:56 AM 47.1 °F - 39.2 °F 74% 30.02 in 10.0 mi West 11.5 mph 18.4 mph N/A   Overcast
12:35 PM 48.4 °F - 37.4 °F 66% 30.03 in 10.0 mi WNW 10.4 mph - N/A   Overcast
12:56 PM 50.0 °F - 37.9 °F 63% 30.03 in 10.0 mi WNW 9.2 mph - N/A   Overcast
1:15 PM 48.6 °F - 38.3 °F 68% 30.03 in 10.0 mi West 6.9 mph - N/A   Overcast
1:35 PM 50.7 °F - 38.5 °F 63% 30.04 in 10.0 mi West 11.5 mph 17.3 mph N/A   Overcast
1:55 PM 50.9 °F - 38.8 °F 63% 30.04 in 10.0 mi West 9.2 mph 17.3 mph N/A   Overcast
2:15 PM 50.2 °F - 38.5 °F 64% 30.05 in 10.0 mi West 8.1 mph 20.7 mph N/A   Overcast
2:36 PM 52.3 °F - 39.2 °F 61% 30.06 in 10.0 mi West 13.8 mph 18.4 mph N/A   Overcast
2:55 PM 52.2 °F - 40.5 °F 64% 30.06 in 10.0 mi West 15.0 mph 23.0 mph N/A   Overcast
3:15 PM 51.6 °F - 39.0 °F 62% 30.06 in 10.0 mi West 17.3 mph 23.0 mph N/A   Overcast
3:35 PM 51.3 °F - 38.1 °F 61% 30.06 in 10.0 mi WNW 11.5 mph 23.0 mph N/A   Overcast
3:55 PM 51.8 °F - 37.9 °F 59% 30.06 in 10.0 mi WNW 15.0 mph 23.0 mph N/A   Overcast
4:03 PM 51.6 °F - 38.1 °F 60% 30.06 in 10.0 mi WNW 12.7 mph 23.0 mph N/A   Overcast
4:25 PM 51.8 °F - 37.4 °F 58% 30.07 in 10.0 mi West 12.7 mph 19.6 mph N/A   Overcast
4:36 PM 51.3 °F - 38.3 °F 61% 30.07 in 10.0 mi West 13.8 mph 20.7 mph N/A   Overcast
4:55 PM 51.1 °F - 37.4 °F 60% 30.07 in 10.0 mi WNW 10.4 mph 21.9 mph N/A   Overcast
5:15 PM 52.0 °F - 37.8 °F 58% 30.07 in 10.0 mi West 12.7 mph 20.7 mph N/A   Overcast
5:35 PM 51.6 °F - 38.3 °F 60% 30.08 in 10.0 mi WNW 10.4 mph 17.3 mph N/A   Overcast
5:56 PM 51.8 °F - 37.0 °F 57% 30.08 in 10.0 mi West 11.5 mph 17.3 mph N/A   Mostly Cloudy
6:15 PM 50.5 °F - 36.0 °F 57% 30.08 in 10.0 mi WNW 11.5 mph 16.1 mph N/A   Mostly Cloudy
6:35 PM 50.5 °F - 37.2 °F 60% 30.08 in 10.0 mi WNW 9.2 mph 16.1 mph N/A   Mostly Cloudy
6:56 PM 52.0 °F - 37.4 °F 58% 30.09 in 10.0 mi WNW 12.7 mph 19.6 mph N/A   Mostly Cloudy
7:15 PM 50.9 °F - 36.9 °F 59% 30.09 in 10.0 mi West 11.5 mph 21.9 mph N/A   Scattered Clouds
7:35 PM 50.4 °F - 36.7 °F 59% 30.10 in 10.0 mi WNW 9.2 mph - N/A   Clear
7:56 PM 49.5 °F - 35.1 °F 58% 30.11 in 10.0 mi WNW 9.2 mph - N/A   Scattered Clouds
8:15 PM 48.4 °F - 34.5 °F 59% 30.11 in 10.0 mi WNW 8.1 mph - N/A   Scattered Clouds
8:35 PM 47.3 °F - 34.5 °F 61% 30.12 in 10.0 mi WNW 8.1 mph - N/A   Scattered Clouds
8:56 PM 46.2 °F 45.0 °F 34.2 °F 63% 30.12 in 10.0 mi West 3.5 mph - N/A   Scattered Clouds
9:15 PM 45.3 °F 43.0 °F 34.5 °F 66% 30.13 in 10.0 mi WNW 4.6 mph - N/A   Scattered Clouds
9:56 PM 43.5 °F 40.1 °F 34.9 °F 72% 30.15 in 10.0 mi West 5.8 mph - N/A   Scattered Clouds
10:01 PM 43.7 °F 40.3 °F 35.1 °F 72% 30.15 in 10.0 mi West 5.8 mph - N/A   Mostly Cloudy